Location: Champignolles
(47.0543°N, 4.5663°E)
Time: 10:18:19
(UTC+00:00)

N. Korean satellite - Visible Passes

Search period start: 04 March 2021 00:00
Search period end: 14 March 2021 00:00
Orbit: 451 x 502 km, 97.2° (Epoch: 03 March)

Date Brightness Start Highest point End Pass type
(mag) Time Alt. Az. Time Alt. Az. Time Alt. Az.
04 Mar 7.3 04:58:31 10° NNE 05:02:00 54° E 05:05:30 10° S visible
05 Mar 8.9 04:32:07 10° NE 04:35:09 26° E 04:38:12 10° SSE visible
06 Mar 9.8 04:06:23 10° ENE 04:08:11 13° E 04:09:59 10° ESE visible
06 Mar 6.8 05:38:18 10° N 05:41:44 46° WNW 05:45:11 10° SSW visible
07 Mar 6.7 05:11:25 10° NNE 05:15:00 81° ESE 05:18:37 10° S visible
08 Mar 8.2 04:44:49 10° NNE 04:48:10 37° E 04:51:33 10° SSE visible
09 Mar 9.5 04:18:38 10° NE 04:21:14 19° E 04:23:51 10° SE visible
10 Mar 6.5 05:24:20 10° N 05:27:55 69° WNW 05:31:31 10° SSW visible
11 Mar 7.4 04:57:33 10° NNE 05:01:07 54° E 05:04:40 10° S visible
12 Mar 9.0 04:31:07 10° NE 04:34:12 26° E 04:37:18 10° SSE visible
13 Mar 9.9 04:05:20 10° ENE 04:07:11 13° E 04:09:02 10° ESE visible
